�N����,����,�~����,�C��,���x,�C��,����,���ϕ���,�ő�u�ԕ���,�ő厞����,���˗�,�I�_���x,�n�����x,�ő啗���N��,DTYPE
"21/10/07","00:10",0.0,19.7,85.6,1014.0,310.2,1.3,3.1,314.1,0.00,17.3,22.3,"00:06:08",1
"21/10/07","00:20",0.0,19.5,85.8,1013.8,296.0,1.1,2.5,315.2,0.00,17.1,22.4,"00:10:02",1
"21/10/07","00:30",0.0,19.4,85.9,1014.2,305.8,1.1,1.9,336.0,0.00,17.0,22.2,"00:20:48",1
"21/10/07","00:40",0.0,19.3,86.2,1014.2,306.2,1.1,2.4,329.6,0.00,17.0,22.2,"00:37:52",1
"21/10/07","00:50",0.0,19.0,86.5,1014.5,292.3,0.6,1.4,320.6,0.00,16.7,22.1,"00:48:56",1
"21/10/07","01:00",0.0,19.0,86.8,1014.2,288.3,0.8,2.0,324.8,0.00,16.8,22.0,"00:58:48",1
"21/10/07","01:10",0.0,19.0,87.3,1014.0,307.3,1.2,2.8,340.3,0.00,16.9,22.2,"01:09:44",1
"21/10/07","01:20",0.0,19.3,87.5,1014.2,328.5,2.2,3.4,336.0,0.00,17.2,22.1,"01:14:24",1
"21/10/07","01:30",0.0,19.4,87.5,1014.0,320.8,2.2,3.7,331.3,0.00,17.3,21.9,"01:24:48",1
"21/10/07","01:40",0.0,19.2,87.5,1014.0,305.5,1.3,2.9,321.8,0.00,17.1,22.1,"01:34:08",1
"21/10/07","01:50",0.0,19.0,87.8,1014.5,296.6,1.2,2.7,343.8,0.00,17.0,22.1,"01:44:56",1
"21/10/07","02:00",0.0,18.8,87.9,1014.5,291.0,1.0,1.3,300.5,0.00,16.8,22.1,"01:51:28",1
"21/10/07","02:10",0.0,18.5,88.3,1014.5,314.3,1.2,2.5,318.0,0.00,16.6,22.0,"02:02:08",1
"21/10/07","02:20",0.0,18.5,88.7,1013.8,331.6,1.7,2.7,332.5,0.00,16.6,22.0,"02:16:48",1
"21/10/07","02:30",0.0,18.5,88.9,1014.0,331.1,1.3,2.5,340.5,0.00,16.7,21.8,"02:22:40",1
"21/10/07","02:40",0.0,18.5,89.4,1013.8,329.0,1.6,2.8,338.1,0.00,16.8,21.8,"02:37:44",1
"21/10/07","02:50",0.0,18.6,89.5,1013.5,328.2,2.0,3.6,333.0,0.00,16.9,21.8,"02:40:56",1
"21/10/07","03:00",0.0,18.6,89.6,1013.5,325.6,2.5,4.1,334.8,0.00,16.9,21.8,"02:58:00",1
"21/10/07","03:10",0.0,18.7,89.6,1013.8,329.2,2.3,4.2,334.5,0.00,17.0,21.8,"03:04:08",1
"21/10/07","03:20",0.0,18.6,89.5,1014.0,341.9,1.5,3.3,340.4,0.00,16.9,21.9,"03:13:52",1
"21/10/07","03:30",0.0,18.2,89.5,1013.8,338.1,0.6,1.2,316.4,0.00,16.5,21.7,"03:26:48",1
"21/10/07","03:40",0.0,17.8,89.7,1014.0,292.6,0.6,1.1,312.7,0.00,16.1,21.8,"03:38:40",1
"21/10/07","03:50",0.0,17.4,89.8,1013.5,306.2,0.7,1.1,308.3,0.00,15.7,21.9,"03:40:02",1
"21/10/07","04:00",0.0,17.2,90.0,1013.8,292.3,0.8,1.8,334.6,0.00,15.6,21.7,"03:55:44",1
"21/10/07","04:10",0.0,17.0,90.2,1013.3,303.3,0.8,1.7,322.1,0.00,15.4,21.4,"04:09:04",1
"21/10/07","04:20",0.0,17.3,90.5,1013.3,299.7,1.2,2.5,330.9,0.00,15.8,21.6,"04:11:12",1
"21/10/07","04:30",0.0,17.0,90.7,1013.8,290.2,0.6,1.3,343.7,0.00,15.5,21.8,"04:20:02",1
"21/10/07","04:40",0.0,16.9,90.8,1013.5,297.4,0.7,1.4,329.5,0.00,15.4,21.5,"04:36:32",1
"21/10/07","04:50",0.0,17.0,91.1,1013.5,275.0,0.8,1.4,264.9,0.00,15.6,21.5,"04:44:56",1
"21/10/07","05:00",0.0,16.8,91.2,1013.8,285.4,0.6,1.0,271.8,0.00,15.4,21.7,"04:51:20",1
"21/10/07","05:10",0.0,16.7,91.5,1013.8,312.0,1.0,1.6,324.5,0.00,15.3,21.5,"05:09:04",1
"21/10/07","05:20",0.0,16.4,91.7,1014.0,306.8,1.2,1.7,324.4,0.00,15.1,21.4,"05:12:56",1
"21/10/07","05:30",0.0,16.5,91.9,1013.8,276.9,0.8,1.3,281.4,0.00,15.2,21.3,"05:27:20",1
"21/10/07","05:40",0.0,16.5,92.1,1014.0,282.4,0.8,1.1,271.0,0.00,15.3,21.5,"05:33:12",1
"21/10/07","05:50",0.0,16.4,92.3,1014.5,304.4,1.0,1.4,312.2,0.00,15.2,21.5,"05:48:24",1
"21/10/07","06:00",0.0,16.2,92.5,1014.2,317.8,1.1,1.4,323.6,0.00,15.0,21.3,"05:50:48",1
"21/10/07","06:10",0.0,16.2,92.7,1014.0,322.3,1.0,1.3,347.7,0.00,15.1,21.5,"06:01:12",1
"21/10/07","06:20",0.0,16.0,92.8,1014.0,299.0,0.8,1.6,315.7,0.00,14.9,21.3,"06:12:32",1
"21/10/07","06:30",0.0,15.9,93.0,1014.0,307.3,0.8,1.3,320.4,0.00,14.8,21.2,"06:26:16",1
"21/10/07","06:40",0.0,16.1,93.2,1014.2,316.9,1.0,1.6,321.6,0.00,15.0,21.3,"06:35:04",1
"21/10/07","06:50",0.0,16.1,93.3,1014.5,306.7,0.8,1.3,320.5,0.00,15.1,21.4,"06:41:28",1
"21/10/07","07:00",0.0,16.3,93.5,1014.2,307.0,0.6,1.0,305.7,0.00,15.3,21.2,"06:54:40",1
"21/10/07","07:10",0.0,16.7,93.6,1013.8,315.9,1.2,1.7,319.2,0.01,15.7,21.4,"07:00:56",1
"21/10/07","07:20",0.0,17.0,93.7,1013.8,310.3,0.6,1.1,325.5,0.01,16.0,21.2,"07:12:00",1
"21/10/07","07:30",0.0,17.4,93.7,1014.2,260.1,0.5,1.0,240.1,0.02,16.4,21.2,"07:26:08",1
"21/10/07","07:40",0.0,17.9,93.7,1014.2,330.6,0.7,1.6,341.5,0.03,16.9,21.2,"07:35:36",1
"21/10/07","07:50",0.0,18.5,93.7,1014.2,294.7,0.2,0.5,294.0,0.05,17.5,21.1,"07:46:24",1
"21/10/07","08:00",0.0,19.4,93.9,1014.2,300.8,0.6,1.1,310.2,0.12,18.4,21.1,"07:56:40",1
"21/10/07","08:10",0.0,20.3,93.3,1014.5,276.3,0.6,1.0,332.7,0.14,19.2,21.0,"08:00:24",1
"21/10/07","08:20",0.0,20.4,92.8,1014.2,321.9,0.8,1.7,339.2,0.15,19.2,21.2,"08:13:28",1
"21/10/07","08:30",0.0,20.5,91.7,1014.5,243.0,0.5,1.0,267.1,0.10,19.1,21.0,"08:20:48",1
"21/10/07","08:40",0.0,21.0,92.2,1014.9,331.0,0.3,0.9,340.7,0.08,19.7,21.3,"08:36:48",1
"21/10/07","08:50",0.0,21.0,91.4,1014.7,341.6,0.5,1.1,24.0,0.09,19.6,21.2,"08:40:16",1
"21/10/07","09:00",0.0,21.4,90.4,1014.5,265.4,0.6,1.2,240.8,0.13,19.8,21.3,"08:59:36",1
"21/10/07","09:10",0.0,22.4,89.2,1014.0,257.5,0.3,1.2,237.9,0.24,20.6,21.2,"09:00:24",1
"21/10/07","09:20",0.0,23.4,85.4,1013.8,161.8,0.6,1.7,227.4,0.38,20.9,21.4,"09:18:00",1
"21/10/07","09:30",0.0,24.4,81.7,1013.5,217.6,0.6,1.8,240.5,0.30,21.1,21.3,"09:25:44",1
"21/10/07","09:40",0.0,25.3,76.1,1013.3,177.0,0.8,2.1,200.4,0.37,20.8,21.2,"09:39:04",1
"21/10/07","09:50",0.0,25.6,73.1,1013.0,190.4,1.2,2.1,213.2,0.32,20.5,21.6,"09:41:52",1
"21/10/07","10:00",0.0,26.0,70.8,1013.0,145.1,0.8,2.4,191.6,0.35,20.3,21.5,"09:58:08",1
"21/10/07","10:10",0.0,26.5,70.4,1012.8,123.7,0.7,1.9,136.5,0.31,20.7,21.5,"10:08:16",1
"21/10/07","10:20",0.0,26.6,70.4,1012.8,110.4,0.8,2.8,210.5,0.28,20.8,21.6,"10:13:52",1
"21/10/07","10:30",0.0,26.4,70.4,1012.6,100.7,0.7,2.4,123.5,0.29,20.6,21.8,"10:20:48",1
"21/10/07","10:40",0.0,26.4,70.6,1012.8,198.4,1.0,3.1,227.8,0.29,20.7,21.9,"10:33:20",1
"21/10/07","10:50",0.0,26.7,69.2,1012.8,90.5,1.0,2.5,18.8,0.32,20.6,21.9,"10:49:20",1
"21/10/07","11:00",0.0,26.7,69.6,1012.8,117.1,0.8,2.0,154.6,0.20,20.7,21.9,"10:58:40",1
"21/10/07","11:10",0.0,26.9,70.4,1012.6,125.5,0.8,2.6,114.3,0.24,21.1,21.9,"11:00:16",1
"21/10/07","11:20",0.0,26.8,69.7,1012.3,131.0,0.8,2.8,98.7,0.17,20.8,22.0,"11:17:36",1
"21/10/07","11:30",0.0,26.7,70.2,1012.3,96.7,1.2,2.5,114.7,0.16,20.9,22.1,"11:27:28",1
"21/10/07","11:40",0.0,26.9,71.1,1011.9,136.7,1.1,2.5,90.3,0.25,21.3,22.2,"11:38:32",1
"21/10/07","11:50",0.0,27.2,70.1,1011.9,101.6,0.8,2.1,155.1,0.18,21.3,22.2,"11:41:44",1
"21/10/07","12:00",0.0,27.3,70.2,1011.6,147.0,0.7,2.0,116.2,0.21,21.4,22.1,"11:59:12",1
"21/10/07","12:10",0.0,27.7,69.2,1011.9,145.3,1.1,2.4,205.3,0.31,21.6,22.4,"12:07:28",1
"21/10/07","12:20",0.0,28.0,69.6,1011.4,125.9,1.1,2.2,198.2,0.32,22.0,22.3,"12:10:16",1
"21/10/07","12:30",0.0,28.5,67.0,1011.9,198.9,1.8,4.1,233.0,0.51,21.8,22.4,"12:22:16",1
"21/10/07","12:40",0.0,29.0,65.2,1012.3,150.7,0.8,2.1,108.4,0.43,21.8,22.5,"12:32:16",1
"21/10/07","12:50",0.0,28.6,65.4,1012.1,168.1,1.2,2.5,197.4,0.25,21.5,22.6,"12:40:48",1
"21/10/07","13:00",0.0,28.6,65.4,1012.1,87.5,1.0,2.9,5.4,0.30,21.5,22.6,"12:54:32",1
"21/10/07","13:10",0.0,28.9,66.1,1011.6,66.8,0.7,1.8,342.5,0.32,22.0,22.8,"13:03:04",1
"21/10/07","13:20",0.0,28.7,64.7,1011.6,68.9,0.8,3.7,353.2,0.21,21.4,22.7,"13:18:24",1
"21/10/07","13:30",0.0,28.5,67.6,1011.2,140.7,1.0,2.0,141.9,0.26,22.0,22.9,"13:28:24",1
"21/10/07","13:40",0.0,29.4,64.3,1011.4,113.2,1.1,2.8,26.6,0.44,22.0,22.9,"13:32:08",1
"21/10/07","13:50",0.0,29.4,61.8,1011.6,106.2,1.3,2.9,130.5,0.39,21.3,23.1,"13:48:56",1
"21/10/07","14:00",0.0,29.6,63.3,1011.4,138.8,0.7,2.1,212.9,0.37,21.9,23.0,"13:51:12",1
"21/10/07","14:10",0.0,29.6,61.4,1011.6,194.8,1.3,3.7,245.6,0.33,21.4,23.2,"14:02:24",1
"21/10/07","14:20",0.0,29.6,60.4,1011.6,212.0,1.5,3.6,187.9,0.36,21.2,23.2,"14:10:16",1
"21/10/07","14:30",0.0,29.6,60.4,1011.6,197.9,1.7,4.1,209.3,0.37,21.2,23.4,"14:24:56",1
"21/10/07","14:40",0.0,29.9,61.1,1011.6,192.3,1.2,2.5,227.5,0.32,21.6,23.4,"14:31:04",1
"21/10/07","14:50",0.0,30.6,59.7,1011.9,199.7,0.8,2.0,234.8,0.37,21.9,23.4,"14:42:40",1
"21/10/07","15:00",0.0,30.5,58.7,1011.9,123.3,1.2,2.4,56.4,0.35,21.5,23.6,"14:55:28",1
"21/10/07","15:10",0.0,30.0,59.3,1011.9,81.4,1.0,2.4,110.5,0.22,21.2,23.7,"15:01:36",1
"21/10/07","15:20",0.0,29.1,62.0,1011.6,52.9,0.7,1.9,58.0,0.07,21.1,23.6,"15:10:24",1
"21/10/07","15:30",0.0,29.3,62.7,1011.2,30.0,0.7,1.8,29.1,0.19,21.5,23.7,"15:23:04",1
"21/10/07","15:40",0.0,30.2,60.6,1011.4,19.3,1.0,1.9,32.8,0.25,21.8,23.7,"15:36:48",1
"21/10/07","15:50",0.0,30.2,59.1,1011.2,107.1,1.1,3.7,106.9,0.22,21.4,23.4,"15:46:56",1
"21/10/07","16:00",0.0,29.3,60.4,1011.4,132.9,1.0,2.1,139.6,0.11,20.9,23.8,"15:50:56",1
"21/10/07","16:10",0.0,28.9,63.3,1010.9,137.7,1.0,2.8,112.9,0.10,21.3,23.8,"16:09:52",1
"21/10/07","16:20",0.0,28.9,63.5,1011.2,103.6,0.8,2.4,125.7,0.12,21.3,23.8,"16:12:00",1
"21/10/07","16:30",0.0,28.7,64.6,1010.9,103.7,1.0,2.8,139.3,0.08,21.4,24.1,"16:24:32",1
"21/10/07","16:40",0.0,28.8,64.5,1010.9,89.0,0.7,2.2,68.1,0.07,21.5,23.8,"16:38:56",1
"21/10/07","16:50",0.0,28.3,65.5,1010.7,43.6,1.0,1.9,32.0,0.03,21.3,24.0,"16:49:12",1
"21/10/07","17:00",0.0,27.5,67.5,1010.4,18.2,1.1,3.1,39.4,0.01,21.0,24.0,"16:51:12",1
"21/10/07","17:10",0.0,27.2,68.8,1010.2,12.2,1.0,2.0,348.7,0.01,21.0,24.0,"17:00:24",1
"21/10/07","17:20",0.0,27.0,70.2,1010.7,343.2,1.1,2.8,340.3,0.01,21.1,23.8,"17:19:12",1
"21/10/07","17:30",0.0,26.7,71.9,1010.7,334.7,1.3,2.4,341.8,0.01,21.3,23.9,"17:23:36",1
"21/10/07","17:40",0.0,26.6,72.6,1010.9,345.9,0.7,1.6,318.0,0.00,21.3,23.8,"17:39:36",1
"21/10/07","17:50",0.0,26.2,73.4,1010.9,320.1,1.0,2.0,325.9,0.00,21.1,23.8,"17:44:08",1
"21/10/07","18:00",0.0,25.9,74.5,1011.6,328.4,0.8,1.6,315.7,0.00,21.1,23.8,"17:59:36",1
"21/10/07","18:10",0.0,25.4,75.7,1011.6,320.1,0.5,1.1,348.7,0.00,20.8,23.9,"18:03:28",1
"21/10/07","18:20",0.0,25.1,76.9,1011.4,322.1,0.3,1.3,84.4,0.00,20.8,24.0,"18:15:52",1
"21/10/07","18:30",0.0,25.2,77.3,1011.9,312.0,0.6,1.4,102.1,0.00,21.0,23.7,"18:23:28",1
"21/10/07","18:40",0.0,25.3,77.2,1011.9,350.1,1.0,1.8,354.9,0.00,21.1,23.9,"18:30:48",1
"21/10/07","18:50",0.0,25.3,77.2,1012.1,11.2,0.8,1.9,91.0,0.00,21.1,23.9,"18:44:08",1
"21/10/07","19:00",0.0,24.9,77.6,1012.1,324.8,0.7,1.8,5.7,0.00,20.8,23.8,"18:52:08",1
"21/10/07","19:10",0.0,24.5,78.2,1012.3,302.4,0.3,1.0,342.6,0.00,20.5,24.0,"19:01:12",1
"21/10/07","19:20",0.0,24.4,79.1,1012.1,267.9,0.5,1.1,316.4,0.00,20.6,23.7,"19:10:56",1
"21/10/07","19:30",0.0,24.1,80.1,1012.3,282.8,0.8,1.4,289.4,0.00,20.5,23.9,"19:25:52",1
"21/10/07","19:40",0.0,23.9,81.1,1012.8,310.0,1.1,2.6,327.5,0.00,20.5,23.7,"19:35:04",1
"21/10/07","19:50",0.0,23.7,81.9,1013.0,282.6,0.6,1.6,276.5,0.00,20.5,23.6,"19:45:36",1
"21/10/07","20:00",0.0,23.5,82.5,1013.0,281.5,0.5,1.3,323.1,0.00,20.4,23.8,"19:59:28",1
"21/10/07","20:10",0.0,23.5,83.1,1013.3,284.6,1.0,1.3,263.6,0.00,20.5,23.8,"20:05:52",1
"21/10/07","20:20",0.0,23.2,83.7,1013.3,287.5,0.6,1.6,332.0,0.00,20.3,23.7,"20:10:02",1
"21/10/07","20:30",0.0,23.3,84.1,1013.5,316.3,1.1,1.6,343.5,0.00,20.5,23.7,"20:20:24",1
"21/10/07","20:40",0.0,23.2,84.5,1013.0,312.1,1.0,1.9,342.6,0.00,20.5,23.5,"20:33:12",1
"21/10/07","20:50",0.0,22.9,84.8,1013.3,317.1,1.0,1.4,328.4,0.00,20.2,23.6,"20:40:56",1
"21/10/07","21:00",0.0,22.8,85.3,1013.5,311.4,0.7,1.0,345.0,0.00,20.2,23.6,"20:53:12",1
"21/10/07","21:10",0.0,22.9,85.7,1013.5,312.2,1.1,1.8,331.4,0.00,20.4,23.6,"21:09:52",1
"21/10/07","21:20",0.0,23.0,86.0,1013.8,337.1,1.2,2.1,344.4,0.00,20.6,23.4,"21:14:00",1
"21/10/07","21:30",0.0,23.0,86.1,1013.8,275.6,0.6,1.6,328.1,0.00,20.6,23.7,"21:20:24",1
"21/10/07","21:40",0.0,22.9,86.3,1013.8,297.1,0.8,1.4,333.7,0.00,20.5,23.4,"21:37:12",1
"21/10/07","21:50",0.0,22.8,86.5,1013.8,312.3,0.5,1.3,14.0,0.00,20.5,23.4,"21:43:44",1
"21/10/07","22:00",0.0,22.6,86.7,1014.0,288.5,0.2,1.2,331.3,0.00,20.3,23.5,"21:58:00",1
"21/10/07","22:10",0.0,22.7,87.0,1014.0,296.6,1.0,1.4,324.4,0.00,20.5,23.4,"22:02:40",1
"21/10/07","22:20",0.0,22.8,87.1,1014.2,295.4,1.1,1.9,335.8,0.00,20.6,23.4,"22:12:00",1
"21/10/07","22:30",0.0,22.7,87.1,1014.0,314.3,1.5,2.2,340.6,0.00,20.5,23.5,"22:29:04",1
"21/10/07","22:40",0.0,22.7,87.0,1014.2,319.7,1.6,2.9,348.3,0.00,20.5,23.4,"22:32:56",1
"21/10/07","22:50",0.0,22.6,87.1,1014.9,314.1,1.5,2.6,334.7,0.00,20.4,23.4,"22:47:04",1
"21/10/07","23:00",0.0,22.6,87.1,1014.5,313.5,1.7,2.7,330.4,0.00,20.4,23.5,"22:52:48",1
"21/10/07","23:10",0.0,22.7,87.0,1014.2,326.4,1.5,2.6,332.8,0.00,20.5,23.2,"23:03:44",1
"21/10/07","23:20",0.0,22.6,87.0,1014.2,328.2,1.5,3.2,342.4,0.00,20.4,23.3,"23:10:48",1
"21/10/07","23:30",0.0,22.7,87.0,1014.2,326.1,1.3,1.9,332.4,0.00,20.5,23.2,"23:28:56",1
"21/10/07","23:40",0.0,22.6,87.0,1014.0,313.1,1.3,2.6,336.5,0.00,20.4,23.2,"23:31:44",1
"21/10/07","23:50",0.0,22.5,87.0,1014.2,326.1,0.8,1.4,335.0,0.00,20.3,23.2,"23:43:20",1
"21/10/07","24:00",0.0,22.4,87.1,1014.5,308.5,0.8,1.4,333.8,0.00,20.2,23.0,"23:55:12",1
